TimeEDT,TemperatureF,Dew PointF,Humidity,Sea Level PressureIn,VisibilityMPH,Wind Direction,Wind SpeedMPH,Gust SpeedMPH,PrecipitationIn,Events,Conditions,WindDirDegrees,DateUTC
12:53 AM,34.0,26.1,73,30.15,10.0,SW,5.8,-,N/A,,Clear,220,2012-10-11 04:53:00
1:53 AM,34.0,26.1,73,30.15,10.0,SW,5.8,-,N/A,,Clear,220,2012-10-11 05:53:00
2:53 AM,33.1,26.1,75,30.16,10.0,SW,6.9,-,N/A,,Clear,220,2012-10-11 06:53:00
3:53 AM,33.1,26.1,75,30.15,10.0,SSW,6.9,-,N/A,,Clear,200,2012-10-11 07:53:00
4:53 AM,33.1,27.0,78,30.13,10.0,South,10.4,-,N/A,,Partly Cloudy,190,2012-10-11 08:53:00
5:53 AM,34.0,27.0,75,30.15,10.0,SSW,8.1,-,N/A,,Mostly Cloudy,200,2012-10-11 09:53:00
6:53 AM,35.1,28.0,76,30.15,10.0,SSW,4.6,-,N/A,,Overcast,200,2012-10-11 10:53:00
7:53 AM,37.0,28.9,73,30.12,10.0,South,9.2,-,N/A,,Partly Cloudy,180,2012-10-11 11:53:00
8:53 AM,39.0,30.0,70,30.11,10.0,SSW,11.5,-,N/A,,Mostly Cloudy,200,2012-10-11 12:53:00
9:53 AM,43.0,30.9,62,30.10,10.0,SSW,13.8,20.7,N/A,,Mostly Cloudy,210,2012-10-11 13:53:00
10:53 AM,48.0,30.9,52,30.06,10.0,SSW,17.3,25.3,N/A,,Overcast,210,2012-10-11 14:53:00
11:53 AM,50.0,30.9,48,30.03,10.0,SSW,23.0,29.9,N/A,,Overcast,210,2012-10-11 15:53:00
12:53 PM,55.9,33.1,42,29.98,10.0,SW,27.6,38.0,N/A,,Clear,220,2012-10-11 16:53:00
1:53 PM,59.0,34.0,39,29.96,10.0,SW,26.5,36.8,N/A,,Scattered Clouds,230,2012-10-11 17:53:00
2:53 PM,60.1,35.1,39,29.96,10.0,West,27.6,38.0,N/A,,Mostly Cloudy,260,2012-10-11 18:53:00
3:53 PM,57.0,37.9,49,29.99,10.0,West,23.0,27.6,0.00,,Overcast,270,2012-10-11 19:53:00
4:53 PM,50.0,43.0,77,30.03,10.0,WNW,16.1,24.2,0.00,Rain,Light Rain,300,2012-10-11 20:53:00
5:53 PM,48.2,42.8,82,30.03,10.0,West,13.8,24.2,N/A,,Overcast,280,2012-10-11 21:53:00
6:53 PM,46.9,41.0,80,30.08,10.0,NNW,16.1,20.7,0.00,Rain,Light Rain,330,2012-10-11 22:53:00
7:53 PM,45.0,39.9,82,30.11,10.0,NW,9.2,-,0.00,Rain,Light Rain,310,2012-10-11 23:53:00
8:53 PM,44.6,37.4,76,30.11,10.0,NW,10.4,-,N/A,,Overcast,310,2012-10-12 00:53:00
9:53 PM,45.0,37.9,76,30.15,10.0,NW,6.9,-,N/A,,Overcast,320,2012-10-12 01:53:00
10:53 PM,44.6,35.6,71,30.16,10.0,NW,6.9,-,N/A,,Overcast,320,2012-10-12 02:53:00
11:53 PM,44.1,35.1,71,30.18,10.0,WNW,5.8,-,N/A,,Scattered Clouds,300,2012-10-12 03:53:00